Regional Weather Roundup
Issued by NWS

Home | Current Version | Previous Version | Text Only | Print | Product List | Glossary Off
Versions: 1 2 3 4 5 6 7 8 9 10 11 12 13 14 15 16 17 18 19 20 21 22 23 24 25 26 27 28 29 30 31 32 33 34 35 36 37 38 39 40 41 42 43 44 45 46 47 48 49 50

529
ASUS43 KFSD 300502
RWRSD

WEATHER ROUNDUP FOR SOUTH DAKOTA
NATIONAL WEATHER SERVICE SIOUX FALLS SD
1200 AM CDT THU MAR 30 2017

NOTE: "FAIR" INDICATES FEW OR NO CLOUDS BELOW 12,000 FEET WITH NO
SIGNIFICANT WEATHER AND/OR OBSTRUCTIONS TO VISIBILITY.


SDZ001>005-009-010-012>017-300600-
NORTHWEST AND NORTH CENTRAL SOUTH DAKOTA

CITY           SKY/WX    TMP DP  RH WIND       PRES   REMARKS
BUFFALO          N/A     44  38  79 S14       29.81F
FAITH            N/A     40  37  89 MISG      29.92F
MOBRIDGE       MOCLDY    42  32  67 S12       29.95S
$$

SDZ012>016-024>037-041>051-057-063-072>074-300600-
SOUTHWEST AND SOUTH CENTRAL SOUTH DAKOTA

CITY           SKY/WX    TMP DP  RH WIND       PRES   REMARKS
RAPID CTY ARPT CLEAR     37  35  92 CALM      29.92F
PIERRE         CLEAR     38  33  82 SE10      29.98S
CUSTER         MOCLDY    36  33  89 SE3       29.93F
ELLSWORTH AFB  CLEAR     44  39  85 CALM      29.91F
PHILIP         CLEAR     41  36  82 SE6       29.96F
PINE RIDGE     CLEAR     42  38  85 E5        29.93F
SPEARFISH      FAIR      41  36  81 CALM      29.88F
WINNER         CLOUDY    41  37  86 E9        29.97F
$$

SDZ004>011-016>023-039-040-300600-
NORTHEAST SOUTH DAKOTA

CITY           SKY/WX    TMP DP  RH WIND       PRES   REMARKS
ABERDEEN       PTCLDY    38  32  79 SE9       30.03F
WATERTOWN      LGT RAIN  39  36  89 SE8       30.02F
BROOKINGS      CLOUDY    39  36  87 E10       30.00F
SISSETON         N/A     42  38  85 S12       30.05F
$$

SDZ017-020-022-023-036>040-048>070-300600-
SOUTHEAST SOUTH DAKOTA

CITY           SKY/WX    TMP DP  RH WIND       PRES   REMARKS
SIOUX FALLS    LGT RAIN  39  39 100 NE13      29.97F
HURON          CLOUDY    42  37  82 E9        30.01F
CHAMBERLAIN    CLOUDY    42  38  89 E10G16    29.99F
MITCHELL       CLOUDY    41  36  82 E8        30.00F
YANKTON        CLOUDY    39  36  87 NE14      29.95F
$$

ABBREVIATIONS USED IN REMARKS
   TC - TEMPERATURE IN CELSIUS
  WCI - WIND CHILL INDEX
   HX - HEAT INDEX
  VSB - VISIBILITY





USA.gov is the U.S. government's official web portal to all federal, state and local government web resources and services.